Time,TemperatureF,DewpointF,PressureIn,WindDirection,WindDirectionDegrees,WindSpeedMPH,WindSpeedGustMPH,Humidity,HourlyPrecipIn,Conditions,Clouds,dailyrainin,SoftwareType,DateUTC
2013-03-04 00:00:00,27.1,13.1,29.78,NNW,338,0.0,0.0,55,0.00,CLR,CLR,0.00,WeatherDisplay:10.37,2013-03-04 05:00:00,
2013-03-04 00:05:00,27.1,13.1,29.78,NNW,338,0.0,0.0,55,0.00,CLR,CLR,0.00,WeatherDisplay:10.37,2013-03-04 05:05:00,
2013-03-04 00:08:00,27.3,13.7,29.78,NNE,22,5.8,5.8,56,0.00,CLR,CLR,0.00,WeatherDisplay:10.37,2013-03-04 05:08:00,
2013-03-04 00:10:00,27.0,13.3,29.77,North,0,4.2,4.6,56,0.00,CLR,CLR,0.00,WeatherDisplay:10.37,2013-03-04 05:10:00,
2013-03-04 00:15:00,27.1,13.1,29.77,NNW,338,5.3,5.8,55,0.00,CLR,CLR,0.00,WeatherDisplay:10.37,2013-03-04 05:15:00,
2013-03-04 00:20:00,28.0,13.5,29.77,North,0,4.9,4.9,54,0.00,CLR,CLR,0.00,WeatherDisplay:10.37,2013-03-04 05:20:00,
2013-03-04 00:25:00,27.9,13.3,29.77,NNE,22,4.4,4.6,54,0.00,CLR,CLR,0.00,WeatherDisplay:10.37,2013-03-04 05:25:00,
2013-03-04 00:30:00,28.0,13.5,29.77,North,0,5.2,5.2,54,0.00,CLR,CLR,0.00,WeatherDisplay:10.37,2013-03-04 05:30:00,
2013-03-04 00:35:00,28.0,13.5,29.77,North,0,2.4,2.4,54,0.00,CLR,CLR,0.00,WeatherDisplay:10.37,2013-03-04 05:35:00,
2013-03-04 00:41:00,27.5,13.0,29.78,NNE,22,3.3,3.5,54,0.00,CLR,CLR,0.00,WeatherDisplay:10.37,2013-03-04 05:41:00,
2013-03-04 00:46:00,27.9,13.3,29.78,North,0,0.0,0.0,54,0.00,CLR,CLR,0.00,WeatherDisplay:10.37,2013-03-04 05:46:00,
2013-03-04 00:51:00,27.7,13.2,29.78,North,0,0.0,0.0,54,0.00,CLR,CLR,0.00,WeatherDisplay:10.37,2013-03-04 05:51:00,
2013-03-04 00:56:00,27.5,13.0,29.78,NNE,22,0.0,0.0,54,0.00,CLR,CLR,0.00,WeatherDisplay:10.37,2013-03-04 05:56:00,
2013-03-04 01:01:00,27.5,13.0,29.78,NNE,22,0.0,0.0,54,0.00,CLR,CLR,0.00,WeatherDisplay:10.37,2013-03-04 06:01:00,
2013-03-04 01:06:00,27.5,13.0,29.78,NNE,22,0.0,0.0,54,0.00,CLR,CLR,0.00,WeatherDisplay:10.37,2013-03-04 06:06:00,
2013-03-04 01:11:00,27.3,13.3,29.78,North,0,0.0,0.0,55,0.00,CLR,CLR,0.00,WeatherDisplay:10.37,2013-03-04 06:11:00,
2013-03-04 01:16:00,27.1,13.1,29.78,NNE,22,3.3,3.5,55,0.00,CLR,CLR,0.00,WeatherDisplay:10.37,2013-03-04 06:16:00,
2013-03-04 01:21:00,27.1,13.1,29.78,North,0,4.2,4.6,55,0.00,CLR,CLR,0.00,WeatherDisplay:10.37,2013-03-04 06:21:00,
2013-03-04 01:26:00,27.5,13.4,29.78,NNE,22,4.0,4.0,55,0.00,CLR,CLR,0.00,WeatherDisplay:10.37,2013-03-04 06:26:00,
2013-03-04 01:31:00,27.3,12.8,29.79,NNE,22,4.9,4.9,54,0.00,CLR,CLR,0.00,WeatherDisplay:10.37,2013-03-04 06:31:00,
2013-03-04 01:36:00,27.5,13.0,29.79,NNE,22,6.8,8.1,54,0.00,CLR,CLR,0.00,WeatherDisplay:10.37,2013-03-04 06:36:00,
2013-03-04 01:41:00,27.7,12.8,29.79,NNE,22,9.0,10.4,53,0.00,CLR,CLR,0.00,WeatherDisplay:10.37,2013-03-04 06:41:00,
2013-03-04 01:46:00,27.9,13.3,29.79,NE,45,7.0,7.0,54,0.00,CLR,CLR,0.00,WeatherDisplay:10.37,2013-03-04 06:46:00,
2013-03-04 01:52:00,28.0,13.5,29.79,North,0,6.8,6.9,54,0.00,CLR,CLR,0.00,WeatherDisplay:10.37,2013-03-04 06:52:00,
2013-03-04 01:57:00,27.5,13.0,29.79,North,0,6.1,6.1,54,0.00,CLR,CLR,0.00,WeatherDisplay:10.37,2013-03-04 06:57:00,
2013-03-04 02:02:00,27.5,13.0,29.79,North,0,8.1,8.1,54,0.00,CLR,CLR,0.00,WeatherDisplay:10.37,2013-03-04 07:02:00,
2013-03-04 02:07:00,27.3,13.3,29.80,North,0,4.4,4.6,55,0.00,CLR,CLR,0.00,WeatherDisplay:10.37,2013-03-04 07:07:00,
2013-03-04 02:12:00,27.3,12.8,29.80,NNE,22,4.4,4.6,54,0.00,CLR,CLR,0.00,WeatherDisplay:10.37,2013-03-04 07:12:00,
2013-03-04 02:17:00,27.3,12.8,29.79,NE,45,4.6,5.8,54,0.00,CLR,CLR,0.00,WeatherDisplay:10.37,2013-03-04 07:17:00,
2013-03-04 02:22:00,27.5,13.0,29.80,North,0,0.0,0.0,54,0.00,CLR,CLR,0.00,WeatherDisplay:10.37,2013-03-04 07:22:00,
2013-03-04 02:27:00,27.3,12.8,29.80,North,0,3.8,3.8,54,0.00,CLR,CLR,0.00,WeatherDisplay:10.37,2013-03-04 07:27:00,
2013-03-04 02:32:00,27.1,12.3,29.79,NNE,22,5.8,5.8,53,0.00,CLR,CLR,0.00,WeatherDisplay:10.37,2013-03-04 07:32:00,
2013-03-04 02:37:00,27.1,12.3,29.79,North,0,6.1,6.9,53,0.00,CLR,CLR,0.00,WeatherDisplay:10.37,2013-03-04 07:37:00,
2013-03-04 02:43:00,27.1,11.8,29.79,NNE,22,6.1,6.1,52,0.00,CLR,CLR,0.00,WeatherDisplay:10.37,2013-03-04 07:43:00,
2013-03-04 02:48:00,27.3,12.4,29.79,NNW,338,4.2,4.6,53,0.00,CLR,CLR,0.00,WeatherDisplay:10.37,2013-03-04 07:48:00,
2013-03-04 02:53:00,27.3,12.4,29.79,NNE,22,3.8,3.8,53,0.00,CLR,CLR,0.00,WeatherDisplay:10.37,2013-03-04 07:53:00,
2013-03-04 02:58:00,27.3,12.0,29.79,NW,315,7.2,7.2,52,0.00,CLR,CLR,0.00,WeatherDisplay:10.37,2013-03-04 07:58:00,
2013-03-04 03:03:00,27.3,12.4,29.79,NNE,22,1.7,0.0,53,0.00,CLR,CLR,0.00,WeatherDisplay:10.37,2013-03-04 08:03:00,
2013-03-04 03:08:00,26.8,11.9,29.79,WNW,292,7.2,7.2,53,0.00,CLR,CLR,0.00,WeatherDisplay:10.37,2013-03-04 08:08:00,
2013-03-04 03:14:00,27.3,12.4,29.79,West,270,3.5,3.5,53,0.00,CLR,CLR,0.00,WeatherDisplay:10.37,2013-03-04 08:14:00,
2013-03-04 03:19:00,27.1,12.3,29.79,West,270,0.0,0.0,53,0.00,CLR,CLR,0.00,WeatherDisplay:10.37,2013-03-04 08:19:00,
2013-03-04 03:24:00,26.8,11.9,29.79,West,270,0.0,0.0,53,0.00,CLR,CLR,0.00,WeatherDisplay:10.37,2013-03-04 08:24:00,
2013-03-04 03:29:00,26.4,11.6,29.80,NNW,338,0.0,0.0,53,0.00,CLR,CLR,0.00,WeatherDisplay:10.37,2013-03-04 08:29:00,
2013-03-04 03:34:00,26.2,11.4,29.79,NW,315,0.0,0.0,53,0.00,CLR,CLR,0.00,WeatherDisplay:10.37,2013-03-04 08:34:00,
2013-03-04 03:39:00,25.9,11.1,29.79,WSW,248,0.0,0.0,53,0.00,CLR,CLR,0.00,WeatherDisplay:10.37,2013-03-04 08:39:00,
2013-03-04 03:44:00,25.9,11.5,29.79,ENE,68,0.0,0.0,54,0.00,CLR,CLR,0.00,WeatherDisplay:10.37,2013-03-04 08:44:00,
2013-03-04 03:49:00,25.7,11.3,29.80,ESE,112,0.0,0.0,54,0.00,CLR,CLR,0.00,WeatherDisplay:10.37,2013-03-04 08:49:00,
2013-03-04 03:54:00,25.3,11.8,29.80,NNE,22,5.5,5.5,56,0.00,CLR,CLR,0.00,WeatherDisplay:10.37,2013-03-04 08:54:00,
2013-03-04 03:59:00,25.2,11.2,29.80,NNE,22,3.3,3.5,55,0.00,CLR,CLR,0.00,WeatherDisplay:10.37,2013-03-04 08:59:00,
2013-03-04 04:04:00,25.2,11.2,29.80,NNE,22,3.3,3.5,55,0.00,CLR,CLR,0.00,WeatherDisplay:10.37,2013-03-04 09:04:00,
2013-03-04 04:09:00,25.3,11.4,29.80,NNW,338,0.0,0.0,55,0.00,CLR,CLR,0.00,WeatherDisplay:10.37,2013-03-04 09:09:00,
2013-03-04 04:14:00,25.3,11.4,29.80,WSW,248,0.0,0.0,55,0.00,CLR,CLR,0.00,WeatherDisplay:10.37,2013-03-04 09:14:00,
2013-03-04 04:20:00,25.3,11.4,29.80,WSW,248,0.0,0.0,55,0.00,CLR,CLR,0.00,WeatherDisplay:10.37,2013-03-04 09:20:00,
2013-03-04 04:25:00,25.3,11.8,29.81,West,270,0.0,0.0,56,0.00,CLR,CLR,0.00,WeatherDisplay:10.37,2013-03-04 09:25:00,
2013-03-04 04:30:00,25.5,12.0,29.81,North,0,5.5,5.8,56,0.00,CLR,CLR,0.00,WeatherDisplay:10.37,2013-03-04 09:30:00,
2013-03-04 04:35:00,26.2,12.7,29.81,NW,315,0.0,0.0,56,0.00,CLR,CLR,0.00,WeatherDisplay:10.37,2013-03-04 09:35:00,
2013-03-04 04:40:00,26.2,12.2,29.82,WNW,292,3.1,3.5,55,0.00,CLR,CLR,0.00,WeatherDisplay:10.37,2013-03-04 09:40:00,
2013-03-04 04:45:00,26.4,12.0,29.82,NNE,22,0.0,0.0,54,0.00,CLR,CLR,0.00,WeatherDisplay:10.37,2013-03-04 09:45:00,
2013-03-04 04:50:00,26.2,12.2,29.82,NNW,338,0.0,0.0,55,0.00,CLR,CLR,0.00,WeatherDisplay:10.37,2013-03-04 09:50:00,
2013-03-04 04:55:00,25.9,11.9,29.83,NNW,338,0.0,0.0,55,0.00,CLR,CLR,0.00,WeatherDisplay:10.37,2013-03-04 09:55:00,
2013-03-04 05:00:00,25.7,11.7,29.83,North,0,0.0,0.0,55,0.00,CLR,CLR,0.00,WeatherDisplay:10.37,2013-03-04 10:00:00,
2013-03-04 05:05:00,25.3,11.8,29.83,East,90,0.0,0.0,56,0.00,CLR,CLR,0.00,WeatherDisplay:10.37,2013-03-04 10:05:00,
2013-03-04 05:10:00,25.3,11.8,29.83,WNW,292,0.0,0.0,56,0.00,CLR,CLR,0.00,WeatherDisplay:10.37,2013-03-04 10:10:00,
2013-03-04 05:15:00,25.0,11.5,29.84,WNW,292,0.0,0.0,56,0.00,CLR,CLR,0.00,WeatherDisplay:10.37,2013-03-04 10:15:00,
2013-03-04 05:21:00,24.8,11.3,29.83,West,270,0.0,0.0,56,0.00,CLR,CLR,0.00,WeatherDisplay:10.37,2013-03-04 10:21:00,
2013-03-04 05:26:00,24.4,11.4,29.84,West,270,0.0,0.0,57,0.00,CLR,CLR,0.00,WeatherDisplay:10.37,2013-03-04 10:26:00,
2013-03-04 05:31:00,24.4,11.0,29.84,West,270,0.0,0.0,56,0.00,CLR,CLR,0.00,WeatherDisplay:10.37,2013-03-04 10:31:00,
2013-03-04 05:36:00,24.4,11.4,29.84,NE,45,0.0,0.0,57,0.00,CLR,CLR,0.00,WeatherDisplay:10.37,2013-03-04 10:36:00,
2013-03-04 05:41:00,24.4,11.8,29.84,ESE,112,0.0,0.0,58,0.00,CLR,CLR,0.00,WeatherDisplay:10.37,2013-03-04 10:41:00,
2013-03-04 05:46:00,24.4,11.4,29.84,NNE,22,0.0,0.0,57,0.00,CLR,CLR,0.00,WeatherDisplay:10.37,2013-03-04 10:46:00,
2013-03-04 05:51:00,24.6,11.5,29.85,NNE,22,0.0,0.0,57,0.00,CLR,CLR,0.00,WeatherDisplay:10.37,2013-03-04 10:51:00,
2013-03-04 05:56:00,25.3,11.8,29.84,NE,45,0.0,0.0,56,0.00,CLR,CLR,0.00,WeatherDisplay:10.37,2013-03-04 10:56:00,
2013-03-04 06:01:00,25.3,11.8,29.84,NE,45,0.0,0.0,56,0.00,CLR,CLR,0.00,WeatherDisplay:10.37,2013-03-04 11:01:00,
2013-03-04 06:06:00,25.3,11.8,29.84,NE,45,0.0,0.0,56,0.00,CLR,CLR,0.00,WeatherDisplay:10.37,2013-03-04 11:06:00,
2013-03-04 06:12:00,24.1,11.8,29.85,NE,45,0.0,0.0,59,0.00,CLR,CLR,0.00,WeatherDisplay:10.37,2013-03-04 11:12:00,
2013-03-04 06:17:00,23.7,11.5,29.85,SSE,158,0.0,0.0,59,0.00,CLR,CLR,0.00,WeatherDisplay:10.37,2013-03-04 11:17:00,
2013-03-04 06:22:00,23.2,11.0,29.85,SW,225,0.0,0.0,59,0.00,CLR,CLR,0.00,WeatherDisplay:10.37,2013-03-04 11:22:00,
2013-03-04 06:27:00,23.2,11.0,29.86,SW,225,0.0,0.0,59,0.00,CLR,CLR,0.00,WeatherDisplay:10.37,2013-03-04 11:27:00,
2013-03-04 06:32:00,23.2,11.0,29.86,SW,225,0.0,0.0,59,0.00,CLR,CLR,0.00,WeatherDisplay:10.37,2013-03-04 11:32:00,
2013-03-04 06:37:00,23.4,11.1,29.86,SSW,202,0.0,0.0,59,0.00,CLR,CLR,0.00,WeatherDisplay:10.37,2013-03-04 11:37:00,
2013-03-04 06:42:00,23.4,11.1,29.87,SW,225,0.0,0.0,59,0.00,CLR,CLR,0.00,WeatherDisplay:10.37,2013-03-04 11:42:00,
2013-03-04 06:47:00,22.8,11.0,29.86,WSW,248,0.0,0.0,60,0.00,CLR,CLR,0.00,WeatherDisplay:10.37,2013-03-04 11:47:00,
2013-03-04 06:52:00,22.6,11.2,29.87,South,180,0.0,0.0,61,0.00,CLR,CLR,0.00,WeatherDisplay:10.37,2013-03-04 11:52:00,
2013-03-04 06:57:00,22.8,11.4,29.87,South,180,0.0,0.0,61,0.00,CLR,CLR,0.00,WeatherDisplay:10.37,2013-03-04 11:57:00,
2013-03-04 07:02:00,22.8,11.4,29.86,South,180,0.0,0.0,61,0.00,CLR,CLR,0.00,WeatherDisplay:10.37,2013-03-04 12:02:00,
2013-03-04 07:07:00,22.6,11.2,29.86,SW,225,0.0,0.0,61,0.00,CLR,CLR,0.00,WeatherDisplay:10.37,2013-03-04 12:07:00,
2013-03-04 07:12:00,22.3,11.2,29.87,SSW,202,0.0,0.0,62,0.00,CLR,CLR,0.00,WeatherDisplay:10.37,2013-03-04 12:12:00,
2013-03-04 07:17:00,22.3,11.2,29.87,South,180,0.0,0.0,62,0.00,CLR,CLR,0.00,WeatherDisplay:10.37,2013-03-04 12:17:00,
2013-03-04 07:22:00,22.6,11.2,29.88,SSW,202,0.0,0.0,61,0.00,CLR,CLR,0.00,WeatherDisplay:10.37,2013-03-04 12:22:00,
2013-03-04 07:28:00,22.8,11.4,29.88,South,180,0.0,0.0,61,0.00,CLR,CLR,0.00,WeatherDisplay:10.37,2013-03-04 12:28:00,
2013-03-04 07:33:00,22.1,11.8,29.88,SW,225,0.0,0.0,64,0.00,CLR,CLR,0.00,WeatherDisplay:10.37,2013-03-04 12:33:00,
2013-03-04 07:38:00,22.6,12.3,29.88,East,90,0.0,0.0,64,0.00,CLR,CLR,0.00,WeatherDisplay:10.37,2013-03-04 12:38:00,
2013-03-04 07:43:00,22.8,12.5,29.89,East,90,0.0,0.0,64,0.00,CLR,CLR,0.00,WeatherDisplay:10.37,2013-03-04 12:43:00,
2013-03-04 07:48:00,23.4,12.2,29.88,South,180,0.0,0.0,62,0.00,CLR,CLR,0.00,WeatherDisplay:10.37,2013-03-04 12:48:00,
2013-03-04 07:53:00,23.7,12.6,29.89,SSW,202,0.0,0.0,62,0.00,CLR,CLR,0.00,WeatherDisplay:10.37,2013-03-04 12:53:00,
2013-03-04 07:58:00,24.1,12.6,29.89,SW,225,0.0,0.0,61,0.00,CLR,CLR,0.00,WeatherDisplay:10.37,2013-03-04 12:58:00,
2013-03-04 08:04:00,24.4,12.9,29.89,NNW,338,0.0,0.0,61,0.00,CLR,CLR,0.00,WeatherDisplay:10.37,2013-03-04 13:04:00,
2013-03-04 08:09:00,24.4,12.9,29.89,West,270,0.0,0.0,61,0.00,CLR,CLR,0.00,WeatherDisplay:10.37,2013-03-04 13:09:00,
2013-03-04 08:14:00,25.3,14.1,29.89,North,0,0.0,0.0,62,0.00,CLR,CLR,0.00,WeatherDisplay:10.37,2013-03-04 13:14:00,
2013-03-04 08:19:00,25.5,13.9,29.89,WSW,248,0.0,0.0,61,0.00,CLR,CLR,0.00,WeatherDisplay:10.37,2013-03-04 13:19:00,
2013-03-04 08:24:00,25.9,14.3,29.89,WSW,248,0.0,0.0,61,0.00,CLR,CLR,0.00,WeatherDisplay:10.37,2013-03-04 13:24:00,
2013-03-04 08:29:00,26.4,14.0,29.89,WSW,248,0.0,0.0,59,0.00,CLR,CLR,0.00,WeatherDisplay:10.37,2013-03-04 13:29:00,
2013-03-04 08:35:00,27.1,14.7,29.90,WSW,248,0.0,0.0,59,0.00,CLR,CLR,0.00,WeatherDisplay:10.37,2013-03-04 13:35:00,
2013-03-04 08:40:00,27.7,14.8,29.90,North,0,0.0,0.0,58,0.00,CLR,CLR,0.00,WeatherDisplay:10.37,2013-03-04 13:40:00,
2013-03-04 08:45:00,28.0,15.2,29.90,East,90,0.0,0.0,58,0.00,CLR,CLR,0.00,WeatherDisplay:10.37,2013-03-04 13:45:00,
2013-03-04 08:50:00,28.4,15.5,29.89,SW,225,0.0,0.0,58,0.00,CLR,CLR,0.00,WeatherDisplay:10.37,2013-03-04 13:50:00,
2013-03-04 08:55:00,28.9,14.8,29.90,WSW,248,0.0,0.0,55,0.00,CLR,CLR,0.00,WeatherDisplay:10.37,2013-03-04 13:55:00,
2013-03-04 09:00:00,29.1,14.9,29.89,West,270,4.0,4.0,55,0.00,CLR,CLR,0.00,WeatherDisplay:10.37,2013-03-04 14:00:00,
2013-03-04 09:05:00,29.5,15.3,29.90,WSW,248,0.0,0.0,55,0.00,CLR,CLR,0.00,WeatherDisplay:10.37,2013-03-04 14:05:00,
2013-03-04 09:10:00,30.0,14.9,29.90,West,270,4.0,4.0,53,0.00,CLR,CLR,0.00,WeatherDisplay:10.37,2013-03-04 14:10:00,
2013-03-04 09:15:00,30.4,15.3,29.90,WSW,248,0.0,0.0,53,0.00,CLR,CLR,0.00,WeatherDisplay:10.37,2013-03-04 14:15:00,
2013-03-04 09:20:00,30.6,14.6,29.89,WNW,292,0.0,0.0,51,0.00,CLR,CLR,0.00,WeatherDisplay:10.37,2013-03-04 14:20:00,
2013-03-04 09:26:00,30.9,14.9,29.89,West,270,0.0,0.0,51,0.00,CLR,CLR,0.00,WeatherDisplay:10.37,2013-03-04 14:26:00,
2013-03-04 09:31:00,31.3,15.2,29.89,WNW,292,0.0,0.0,51,0.00,CLR,CLR,0.00,WeatherDisplay:10.37,2013-03-04 14:31:00,
2013-03-04 09:36:00,31.6,15.1,29.89,West,270,0.0,0.0,50,0.00,CLR,CLR,0.00,WeatherDisplay:10.37,2013-03-04 14:36:00,
2013-03-04 09:41:00,31.8,14.3,29.89,West,270,2.4,2.4,48,0.00,CLR,CLR,0.00,WeatherDisplay:10.37,2013-03-04 14:41:00,
2013-03-04 09:46:00,32.0,14.5,29.89,North,0,0.0,0.0,48,0.00,CLR,CLR,0.00,WeatherDisplay:10.37,2013-03-04 14:46:00,
2013-03-04 09:52:00,32.5,14.0,29.89,ENE,68,7.7,8.1,46,0.00,CLR,CLR,0.00,WeatherDisplay:10.37,2013-03-04 14:52:00,
2013-03-04 09:57:00,33.4,15.3,29.89,East,90,0.0,0.0,47,0.00,CLR,CLR,0.00,WeatherDisplay:10.37,2013-03-04 14:57:00,
2013-03-04 10:02:00,33.6,15.0,29.89,WSW,248,0.0,0.0,46,0.00,CLR,CLR,0.00,WeatherDisplay:10.37,2013-03-04 15:02:00,
2013-03-04 10:07:00,34.0,15.8,29.89,WSW,248,4.6,4.6,47,0.00,CLR,CLR,0.00,WeatherDisplay:10.37,2013-03-04 15:07:00,
2013-03-04 10:12:00,34.5,15.8,29.89,WSW,248,0.0,0.0,46,0.00,CLR,CLR,0.00,WeatherDisplay:10.37,2013-03-04 15:12:00,
2013-03-04 10:17:00,34.9,15.1,29.89,West,270,0.0,0.0,44,0.00,CLR,CLR,0.00,WeatherDisplay:10.37,2013-03-04 15:17:00,
2013-03-04 10:23:00,35.2,15.5,29.88,WNW,292,0.0,0.0,44,0.00,CLR,CLR,0.00,WeatherDisplay:10.37,2013-03-04 15:23:00,
2013-03-04 10:28:00,35.6,15.3,29.89,North,0,0.0,0.0,43,0.00,CLR,CLR,0.00,WeatherDisplay:10.37,2013-03-04 15:28:00,
2013-03-04 10:33:00,36.1,14.7,29.89,North,0,0.0,0.0,41,0.00,CLR,CLR,0.00,WeatherDisplay:10.37,2013-03-04 15:33:00,
2013-03-04 10:38:00,36.7,15.2,29.89,NNW,338,0.0,0.0,41,0.00,CLR,CLR,0.00,WeatherDisplay:10.37,2013-03-04 15:38:00,
2013-03-04 10:43:00,37.0,16.0,29.89,WSW,248,3.8,3.8,42,0.00,CLR,CLR,0.00,WeatherDisplay:10.37,2013-03-04 15:43:00,
2013-03-04 10:48:00,37.2,15.6,29.89,NE,45,0.0,0.0,41,0.00,CLR,CLR,0.00,WeatherDisplay:10.37,2013-03-04 15:48:00,
2013-03-04 10:53:00,37.2,14.5,29.89,NNE,22,0.6,0.0,39,0.00,CLR,CLR,0.00,WeatherDisplay:10.37,2013-03-04 15:53:00,
2013-03-04 10:58:00,37.6,15.4,29.89,WSW,248,7.0,7.0,40,0.00,CLR,CLR,0.00,WeatherDisplay:10.37,2013-03-04 15:58:00,
2013-03-04 11:03:00,37.9,15.1,29.88,WSW,248,2.9,5.8,39,0.00,CLR,CLR,0.00,WeatherDisplay:10.37,2013-03-04 16:03:00,
2013-03-04 11:09:00,37.9,15.1,29.88,West,270,6.3,6.3,39,0.00,CLR,CLR,0.00,WeatherDisplay:10.37,2013-03-04 16:09:00,
2013-03-04 11:14:00,38.3,15.5,29.88,WSW,248,0.0,0.0,39,0.00,CLR,CLR,0.00,WeatherDisplay:10.37,2013-03-04 16:14:00,
2013-03-04 11:19:00,38.5,15.6,29.89,WNW,292,1.5,1.5,39,0.00,CLR,CLR,0.00,WeatherDisplay:10.37,2013-03-04 16:19:00,
2013-03-04 11:24:00,38.5,15.0,29.89,NW,315,4.0,4.0,38,0.00,CLR,CLR,0.00,WeatherDisplay:10.37,2013-03-04 16:24:00,
2013-03-04 11:29:00,38.5,15.0,29.89,NW,315,4.0,4.0,38,0.00,CLR,CLR,0.00,WeatherDisplay:10.37,2013-03-04 16:29:00,
2013-03-04 11:34:00,39.0,14.9,29.88,North,0,1.1,1.2,37,0.00,CLR,CLR,0.00,WeatherDisplay:10.37,2013-03-04 16:34:00,
2013-03-04 11:39:00,39.6,15.4,29.88,ENE,68,0.0,0.0,37,0.00,CLR,CLR,0.00,WeatherDisplay:10.37,2013-03-04 16:39:00,
2013-03-04 11:44:00,39.9,15.7,29.88,NE,45,0.0,0.0,37,0.00,CLR,CLR,0.00,WeatherDisplay:10.37,2013-03-04 16:44:00,
2013-03-04 11:49:00,40.6,16.4,29.88,North,0,4.0,4.0,37,0.00,CLR,CLR,0.00,WeatherDisplay:10.37,2013-03-04 16:49:00,
2013-03-04 11:54:00,40.8,14.6,29.88,North,0,4.6,4.6,34,0.00,CLR,CLR,0.00,WeatherDisplay:10.37,2013-03-04 16:54:00,
2013-03-04 11:59:00,41.5,15.2,29.88,NE,45,0.0,4.6,34,0.00,CLR,CLR,0.00,WeatherDisplay:10.37,2013-03-04 16:59:00,
2013-03-04 12:04:00,41.5,14.5,29.88,NE,45,3.1,3.5,33,0.00,CLR,CLR,0.00,WeatherDisplay:10.37,2013-03-04 17:04:00,
2013-03-04 12:09:00,41.9,16.2,29.88,NE,45,0.0,0.0,35,0.00,CLR,CLR,0.00,WeatherDisplay:10.37,2013-03-04 17:09:00,
2013-03-04 12:15:00,42.6,16.8,29.87,West,270,6.5,6.9,35,0.00,CLR,CLR,0.00,WeatherDisplay:10.37,2013-03-04 17:15:00,
2013-03-04 12:20:00,43.0,15.8,29.87,West,270,5.3,5.8,33,0.00,CLR,CLR,0.00,WeatherDisplay:10.37,2013-03-04 17:20:00,
2013-03-04 12:25:00,43.3,15.4,29.87,West,270,3.5,3.5,32,0.00,CLR,CLR,0.00,WeatherDisplay:10.37,2013-03-04 17:25:00,
2013-03-04 12:30:00,43.9,15.2,29.87,NNE,22,0.0,0.0,31,0.00,CLR,CLR,0.00,WeatherDisplay:10.37,2013-03-04 17:30:00,
2013-03-04 12:35:00,44.6,15.0,29.87,North,0,4.9,4.9,30,0.00,CLR,CLR,0.00,WeatherDisplay:10.37,2013-03-04 17:35:00,
2013-03-04 12:40:00,44.8,14.4,29.87,WNW,292,0.0,0.0,29,0.00,CLR,CLR,0.00,WeatherDisplay:10.37,2013-03-04 17:40:00,
2013-03-04 12:46:00,45.1,15.5,29.86,WSW,248,5.8,5.8,30,0.00,CLR,CLR,0.00,WeatherDisplay:10.37,2013-03-04 17:46:00,
2013-03-04 12:51:00,45.3,14.9,29.86,North,0,0.0,0.0,29,0.00,CLR,CLR,0.00,WeatherDisplay:10.37,2013-03-04 17:51:00,
2013-03-04 12:56:00,46.6,16.0,29.86,NNE,22,1.7,1.7,29,0.00,CLR,CLR,0.00,WeatherDisplay:10.37,2013-03-04 17:56:00,
2013-03-04 13:01:00,46.6,16.8,29.86,West,270,0.0,0.0,30,0.00,CLR,CLR,0.00,WeatherDisplay:10.37,2013-03-04 18:01:00,
2013-03-04 13:06:00,46.8,16.9,29.85,SW,225,0.0,0.0,30,0.00,CLR,CLR,0.00,WeatherDisplay:10.37,2013-03-04 18:06:00,
2013-03-04 13:11:00,46.9,17.8,29.85,NW,315,3.3,3.5,31,0.00,CLR,CLR,0.00,WeatherDisplay:10.37,2013-03-04 18:11:00,
2013-03-04 13:16:00,47.3,16.6,29.85,NE,45,2.2,2.3,29,0.00,CLR,CLR,0.00,WeatherDisplay:10.37,2013-03-04 18:16:00,
2013-03-04 13:22:00,47.1,16.4,29.84,WSW,248,3.5,3.5,29,0.00,CLR,CLR,0.00,WeatherDisplay:10.37,2013-03-04 18:22:00,
2013-03-04 13:27:00,47.8,18.6,29.84,NNE,22,0.0,0.0,31,0.00,CLR,CLR,0.00,WeatherDisplay:10.37,2013-03-04 18:27:00,
2013-03-04 13:29:00,47.8,17.1,29.84,West,270,6.8,6.9,29,0.00,CLR,CLR,0.00,WeatherDisplay:10.37,2013-03-04 18:29:00,
2013-03-04 13:30:00,47.8,17.1,29.84,West,270,4.9,4.9,29,0.00,CLR,CLR,0.00,WeatherDisplay:10.37,2013-03-04 18:30:00,
2013-03-04 13:31:00,47.8,17.1,29.84,WNW,292,2.9,3.5,29,0.00,CLR,CLR,0.00,WeatherDisplay:10.37,2013-03-04 18:31:00,
2013-03-04 13:36:00,48.0,16.4,29.84,WSW,248,0.0,0.0,28,0.00,CLR,CLR,0.00,WeatherDisplay:10.37,2013-03-04 18:36:00,
2013-03-04 13:42:00,48.0,15.6,29.83,WSW,248,0.0,0.0,27,0.00,CLR,CLR,0.00,WeatherDisplay:10.37,2013-03-04 18:42:00,
2013-03-04 13:47:00,48.4,14.1,29.83,NNE,22,3.5,3.5,25,0.00,CLR,CLR,0.00,WeatherDisplay:10.37,2013-03-04 18:47:00,
2013-03-04 13:52:00,48.9,16.4,29.83,WNW,292,3.3,3.5,27,0.00,CLR,CLR,0.00,WeatherDisplay:10.37,2013-03-04 18:52:00,
2013-03-04 13:57:00,49.3,18.3,29.82,WSW,248,0.0,0.0,29,0.00,CLR,CLR,0.00,WeatherDisplay:10.37,2013-03-04 18:57:00,
2013-03-04 14:02:00,49.6,17.0,29.82,ENE,68,4.6,4.6,27,0.00,CLR,CLR,0.00,WeatherDisplay:10.37,2013-03-04 19:02:00,
2013-03-04 14:07:00,49.5,16.8,29.82,WSW,248,0.0,0.0,27,0.00,CLR,CLR,0.00,WeatherDisplay:10.37,2013-03-04 19:07:00,
2013-03-04 14:12:00,49.8,17.1,29.82,SSW,202,4.4,4.6,27,0.00,CLR,CLR,0.00,WeatherDisplay:10.37,2013-03-04 19:12:00,
2013-03-04 14:17:00,50.0,18.1,29.81,WSW,248,2.6,2.6,28,0.00,CLR,CLR,0.00,WeatherDisplay:10.37,2013-03-04 19:17:00,
2013-03-04 14:22:00,50.9,18.1,29.81,NNW,338,0.0,0.0,27,0.00,CLR,CLR,0.00,WeatherDisplay:10.37,2013-03-04 19:22:00,
2013-03-04 14:27:00,51.4,18.5,29.81,SW,225,6.1,6.1,27,0.00,CLR,CLR,0.00,WeatherDisplay:10.37,2013-03-04 19:27:00,
2013-03-04 14:32:00,51.4,18.5,29.81,West,270,3.5,3.5,27,0.00,CLR,CLR,0.00,WeatherDisplay:10.37,2013-03-04 19:32:00,
2013-03-04 14:37:00,51.6,15.9,29.81,ESE,112,0.0,3.5,24,0.00,CLR,CLR,0.00,WeatherDisplay:10.37,2013-03-04 19:37:00,
2013-03-04 14:42:00,52.0,18.1,29.81,ESE,112,0.0,0.0,26,0.00,CLR,CLR,0.00,WeatherDisplay:10.37,2013-03-04 19:42:00,
2013-03-04 14:47:00,52.9,19.8,29.81,West,270,0.0,0.0,27,0.00,CLR,CLR,0.00,WeatherDisplay:10.37,2013-03-04 19:47:00,
2013-03-04 14:52:00,52.7,18.7,29.81,West,270,4.9,0.0,26,0.00,CLR,CLR,0.00,WeatherDisplay:10.37,2013-03-04 19:52:00,
2013-03-04 14:57:00,53.1,19.0,29.81,WNW,292,4.0,4.0,26,0.00,CLR,CLR,0.00,WeatherDisplay:10.37,2013-03-04 19:57:00,
2013-03-04 15:02:00,52.9,17.0,29.81,ESE,112,0.0,0.0,24,0.00,CLR,CLR,0.00,WeatherDisplay:10.37,2013-03-04 20:02:00,
2013-03-04 15:07:00,53.6,19.5,29.80,SSW,202,0.0,0.0,26,0.00,CLR,CLR,0.00,WeatherDisplay:10.37,2013-03-04 20:07:00,
2013-03-04 15:13:00,54.1,20.0,29.81,West,270,4.4,4.6,26,0.00,CLR,CLR,0.00,WeatherDisplay:10.37,2013-03-04 20:13:00,
2013-03-04 15:18:00,55.0,19.8,29.81,SW,225,4.9,4.9,25,0.00,CLR,CLR,0.00,WeatherDisplay:10.37,2013-03-04 20:18:00,
2013-03-04 15:23:00,55.8,20.4,29.81,WSW,248,4.4,4.6,25,0.00,CLR,CLR,0.00,WeatherDisplay:10.37,2013-03-04 20:23:00,
2013-03-04 15:28:00,56.1,18.8,29.80,SW,225,2.2,2.3,23,0.00,CLR,CLR,0.00,WeatherDisplay:10.37,2013-03-04 20:28:00,
2013-03-04 15:33:00,57.7,20.1,29.80,WSW,248,7.7,8.1,23,0.00,CLR,CLR,0.00,WeatherDisplay:10.37,2013-03-04 20:33:00,
2013-03-04 15:38:00,56.8,18.3,29.81,West,270,3.3,3.5,22,0.00,CLR,CLR,0.00,WeatherDisplay:10.37,2013-03-04 20:38:00,
2013-03-04 15:43:00,56.1,18.8,29.80,SW,225,0.0,0.0,23,0.00,CLR,CLR,0.00,WeatherDisplay:10.37,2013-03-04 20:43:00,
2013-03-04 15:48:00,56.5,20.1,29.80,WSW,248,4.4,6.9,24,0.00,CLR,CLR,0.00,WeatherDisplay:10.37,2013-03-04 20:48:00,
2013-03-04 15:53:00,57.7,21.1,29.80,SW,225,0.0,3.5,24,0.00,CLR,CLR,0.00,WeatherDisplay:10.37,2013-03-04 20:53:00,
2013-03-04 15:58:00,57.7,22.1,29.80,SW,225,4.2,4.2,25,0.00,CLR,CLR,0.00,WeatherDisplay:10.37,2013-03-04 20:58:00,
2013-03-04 16:04:00,55.6,18.3,29.80,ESE,112,0.0,0.0,23,0.00,CLR,CLR,0.00,WeatherDisplay:10.37,2013-03-04 21:04:00,
2013-03-04 16:09:00,55.8,21.3,29.80,WSW,248,3.1,3.5,26,0.00,CLR,CLR,0.00,WeatherDisplay:10.37,2013-03-04 21:09:00,
2013-03-04 16:14:00,56.3,18.9,29.80,SW,225,0.0,0.0,23,0.00,CLR,CLR,0.00,WeatherDisplay:10.37,2013-03-04 21:14:00,
2013-03-04 16:19:00,55.6,20.3,29.80,SW,225,2.0,2.3,25,0.00,CLR,CLR,0.00,WeatherDisplay:10.37,2013-03-04 21:19:00,
2013-03-04 16:24:00,55.0,17.9,29.80,SW,225,0.0,0.0,23,0.00,CLR,CLR,0.00,WeatherDisplay:10.37,2013-03-04 21:24:00,
2013-03-04 16:29:00,56.3,17.9,29.80,South,180,0.0,0.0,22,0.00,CLR,CLR,0.00,WeatherDisplay:10.37,2013-03-04 21:29:00,
2013-03-04 16:34:00,57.9,22.3,29.80,West,270,0.0,0.0,25,0.00,CLR,CLR,0.00,WeatherDisplay:10.37,2013-03-04 21:34:00,
2013-03-04 16:39:00,58.3,21.6,29.80,WSW,248,0.0,0.0,24,0.00,CLR,CLR,0.00,WeatherDisplay:10.37,2013-03-04 21:39:00,
2013-03-04 16:44:00,57.9,22.3,29.80,WSW,248,0.0,0.0,25,0.00,CLR,CLR,0.00,WeatherDisplay:10.37,2013-03-04 21:44:00,
2013-03-04 16:49:00,59.7,20.8,29.80,West,270,0.0,0.0,22,0.00,CLR,CLR,0.00,WeatherDisplay:10.37,2013-03-04 21:49:00,
2013-03-04 16:54:00,59.0,15.5,29.80,NNE,22,0.0,4.6,18,0.00,CLR,CLR,0.00,WeatherDisplay:10.37,2013-03-04 21:54:00,
2013-03-04 16:59:00,59.4,18.2,29.80,North,0,0.0,0.0,20,0.00,CLR,CLR,0.00,WeatherDisplay:10.37,2013-03-04 21:59:00,
2013-03-04 17:05:00,60.1,20.0,29.80,WNW,292,0.0,0.0,21,0.00,CLR,CLR,0.00,WeatherDisplay:10.37,2013-03-04 22:05:00,
2013-03-04 17:10:00,61.0,20.7,29.80,West,270,4.4,4.6,21,0.00,CLR,CLR,0.00,WeatherDisplay:10.37,2013-03-04 22:10:00,
2013-03-04 17:15:00,60.1,18.8,29.80,NW,315,0.0,0.0,20,0.00,CLR,CLR,0.00,WeatherDisplay:10.37,2013-03-04 22:15:00,
2013-03-04 17:20:00,58.3,19.6,29.80,West,270,0.0,0.0,22,0.00,CLR,CLR,0.00,WeatherDisplay:10.37,2013-03-04 22:20:00,
2013-03-04 17:25:00,57.2,17.6,29.80,SW,225,0.0,0.0,21,0.00,CLR,CLR,0.00,WeatherDisplay:10.37,2013-03-04 22:25:00,
2013-03-04 17:30:00,56.5,19.1,29.80,WSW,248,0.0,0.0,23,0.00,CLR,CLR,0.00,WeatherDisplay:10.37,2013-03-04 22:30:00,
2013-03-04 17:35:00,55.0,19.8,29.80,WSW,248,0.0,0.0,25,0.00,CLR,CLR,0.00,WeatherDisplay:10.37,2013-03-04 22:35:00,
2013-03-04 17:40:00,53.8,17.8,29.80,SW,225,3.5,0.0,24,0.00,CLR,CLR,0.00,WeatherDisplay:10.37,2013-03-04 22:40:00,
2013-03-04 17:45:00,53.4,18.4,29.81,WSW,248,0.0,0.0,25,0.00,CLR,CLR,0.00,WeatherDisplay:10.37,2013-03-04 22:45:00,
2013-03-04 17:50:00,53.1,19.0,29.81,WSW,248,3.3,3.5,26,0.00,CLR,CLR,0.00,WeatherDisplay:10.37,2013-03-04 22:50:00,
2013-03-04 17:56:00,52.0,16.3,29.81,WSW,248,0.0,3.5,24,0.00,CLR,CLR,0.00,WeatherDisplay:10.37,2013-03-04 22:56:00,
2013-03-04 18:01:00,51.4,17.6,29.82,WSW,248,0.0,0.0,26,0.00,CLR,CLR,0.00,WeatherDisplay:10.37,2013-03-04 23:01:00,
2013-03-04 18:06:00,50.7,17.0,29.82,WSW,248,0.0,0.0,26,0.00,CLR,CLR,0.00,WeatherDisplay:10.37,2013-03-04 23:06:00,
2013-03-04 18:11:00,50.5,16.9,29.82,WSW,248,0.0,0.0,26,0.00,CLR,CLR,0.00,WeatherDisplay:10.37,2013-03-04 23:11:00,
2013-03-04 18:16:00,50.2,16.6,29.82,WSW,248,0.0,0.0,26,0.00,CLR,CLR,0.00,WeatherDisplay:10.37,2013-03-04 23:16:00,
2013-03-04 18:21:00,49.6,17.0,29.82,WSW,248,0.0,0.0,27,0.00,CLR,CLR,0.00,WeatherDisplay:10.37,2013-03-04 23:21:00,
2013-03-04 18:26:00,49.3,16.7,29.82,WSW,248,0.0,0.0,27,0.00,CLR,CLR,0.00,WeatherDisplay:10.37,2013-03-04 23:26:00,
2013-03-04 18:31:00,48.9,16.4,29.82,WSW,248,0.0,0.0,27,0.00,CLR,CLR,0.00,WeatherDisplay:10.37,2013-03-04 23:31:00,
2013-03-04 18:36:00,48.4,15.9,29.82,WSW,248,0.0,0.0,27,0.00,CLR,CLR,0.00,WeatherDisplay:10.37,2013-03-04 23:36:00,
2013-03-04 18:41:00,47.8,15.4,29.82,WSW,248,0.0,0.0,27,0.00,CLR,CLR,0.00,WeatherDisplay:10.37,2013-03-04 23:41:00,
2013-03-04 18:46:00,47.5,15.9,29.83,WSW,248,0.0,0.0,28,0.00,CLR,CLR,0.00,WeatherDisplay:10.37,2013-03-04 23:46:00,
2013-03-04 18:51:00,46.9,15.5,29.83,WSW,248,0.0,0.0,28,0.00,CLR,CLR,0.00,WeatherDisplay:10.37,2013-03-04 23:51:00,
2013-03-04 18:57:00,46.6,15.2,29.83,WSW,248,0.0,0.0,28,0.00,CLR,CLR,0.00,WeatherDisplay:10.37,2013-03-04 23:57:00,
2013-03-04 19:02:00,46.4,15.0,29.83,West,270,0.0,0.0,28,0.00,CLR,CLR,0.00,WeatherDisplay:10.37,2013-03-05 00:02:00,
2013-03-04 19:07:00,46.0,15.5,29.83,WNW,292,0.0,0.0,29,0.00,CLR,CLR,0.00,WeatherDisplay:10.37,2013-03-05 00:07:00,
2013-03-04 19:12:00,45.9,16.1,29.83,SSE,158,0.0,0.0,30,0.00,CLR,CLR,0.00,WeatherDisplay:10.37,2013-03-05 00:12:00,
2013-03-04 19:17:00,46.0,15.5,29.84,SW,225,0.0,0.0,29,0.00,CLR,CLR,0.00,WeatherDisplay:10.37,2013-03-05 00:17:00,
2013-03-04 19:22:00,46.2,15.7,29.84,SW,225,0.0,0.0,29,0.00,CLR,CLR,0.00,WeatherDisplay:10.37,2013-03-05 00:22:00,
2013-03-04 19:27:00,46.2,15.7,29.84,SW,225,0.0,0.0,29,0.00,CLR,CLR,0.00,WeatherDisplay:10.37,2013-03-05 00:27:00,
2013-03-04 19:32:00,46.0,17.0,29.84,SSW,202,0.0,0.0,31,0.00,CLR,CLR,0.00,WeatherDisplay:10.37,2013-03-05 00:32:00,
2013-03-04 19:38:00,46.0,17.0,29.84,SSW,202,0.0,0.0,31,0.00,CLR,CLR,0.00,WeatherDisplay:10.37,2013-03-05 00:38:00,
2013-03-04 19:43:00,46.0,17.0,29.84,SSW,202,0.0,0.0,31,0.00,CLR,CLR,0.00,WeatherDisplay:10.37,2013-03-05 00:43:00,
2013-03-04 19:48:00,45.0,15.3,29.84,South,180,0.0,0.0,30,0.00,CLR,CLR,0.00,WeatherDisplay:10.37,2013-03-05 00:48:00,
2013-03-04 19:54:00,44.2,15.5,29.83,South,180,0.0,0.0,31,0.00,CLR,CLR,0.00,WeatherDisplay:10.37,2013-03-05 00:54:00,
2013-03-04 19:59:00,43.9,15.2,29.84,South,180,0.0,0.0,31,0.00,CLR,CLR,0.00,WeatherDisplay:10.37,2013-03-05 00:59:00,
2013-03-04 20:04:00,43.9,15.2,29.84,South,180,0.0,0.0,31,0.00,CLR,CLR,0.00,WeatherDisplay:10.37,2013-03-05 01:04:00,
2013-03-04 20:09:00,43.3,14.7,29.84,South,180,0.0,0.0,31,0.00,CLR,CLR,0.00,WeatherDisplay:10.37,2013-03-05 01:09:00,
2013-03-04 20:14:00,43.3,15.4,29.84,South,180,0.0,0.0,32,0.00,CLR,CLR,0.00,WeatherDisplay:10.37,2013-03-05 01:14:00,
2013-03-04 20:19:00,43.0,15.1,29.83,South,180,0.0,0.0,32,0.00,CLR,CLR,0.00,WeatherDisplay:10.37,2013-03-05 01:19:00,
2013-03-04 20:24:00,43.0,15.1,29.84,South,180,0.0,0.0,32,0.00,CLR,CLR,0.00,WeatherDisplay:10.37,2013-03-05 01:24:00,
2013-03-04 20:29:00,42.8,14.9,29.84,South,180,0.0,0.0,32,0.00,CLR,CLR,0.00,WeatherDisplay:10.37,2013-03-05 01:29:00,
2013-03-04 20:34:00,42.6,14.8,29.84,South,180,0.0,0.0,32,0.00,CLR,CLR,0.00,WeatherDisplay:10.37,2013-03-05 01:34:00,
2013-03-04 20:40:00,42.4,14.6,29.84,South,180,0.0,0.0,32,0.00,CLR,CLR,0.00,WeatherDisplay:10.37,2013-03-05 01:40:00,
2013-03-04 20:45:00,42.1,15.0,29.84,South,180,0.0,0.0,33,0.00,CLR,CLR,0.00,WeatherDisplay:10.37,2013-03-05 01:45:00,
2013-03-04 20:50:00,41.5,15.9,29.84,South,180,0.0,0.0,35,0.00,CLR,CLR,0.00,WeatherDisplay:10.37,2013-03-05 01:50:00,
2013-03-04 20:55:00,41.2,14.9,29.84,South,180,0.0,0.0,34,0.00,CLR,CLR,0.00,WeatherDisplay:10.37,2013-03-05 01:55:00,
2013-03-04 21:00:00,40.3,14.1,29.84,South,180,0.0,0.0,34,0.00,CLR,CLR,0.00,WeatherDisplay:10.37,2013-03-05 02:00:00,
2013-03-04 21:05:00,40.3,14.8,29.84,South,180,0.0,0.0,35,0.00,CLR,CLR,0.00,WeatherDisplay:10.37,2013-03-05 02:05:00,
2013-03-04 21:10:00,39.7,15.6,29.84,SW,225,0.0,0.0,37,0.00,CLR,CLR,0.00,WeatherDisplay:10.37,2013-03-05 02:10:00,
2013-03-04 21:15:00,39.4,15.2,29.84,SW,225,0.0,0.0,37,0.00,CLR,CLR,0.00,WeatherDisplay:10.37,2013-03-05 02:15:00,
2013-03-04 21:20:00,38.8,16.5,29.85,SW,225,0.0,0.0,40,0.00,CLR,CLR,0.00,WeatherDisplay:10.37,2013-03-05 02:20:00,
2013-03-04 21:26:00,38.3,16.1,29.85,East,90,0.0,0.0,40,0.00,CLR,CLR,0.00,WeatherDisplay:10.37,2013-03-05 02:26:00,
2013-03-04 21:31:00,38.1,14.7,29.85,NE,45,0.0,0.0,38,0.00,CLR,CLR,0.00,WeatherDisplay:10.37,2013-03-05 02:31:00,
2013-03-04 21:36:00,38.3,14.3,29.85,NE,45,0.0,0.0,37,0.00,CLR,CLR,0.00,WeatherDisplay:10.37,2013-03-05 02:36:00,
2013-03-04 21:41:00,39.2,14.4,29.85,ENE,68,0.0,0.0,36,0.00,CLR,CLR,0.00,WeatherDisplay:10.37,2013-03-05 02:41:00,
2013-03-04 21:46:00,39.9,14.4,29.85,NE,45,0.0,0.0,35,0.00,CLR,CLR,0.00,WeatherDisplay:10.37,2013-03-05 02:46:00,
2013-03-04 21:51:00,40.3,14.8,29.85,NE,45,0.0,0.0,35,0.00,CLR,CLR,0.00,WeatherDisplay:10.37,2013-03-05 02:51:00,
2013-03-04 21:56:00,40.3,14.8,29.85,NE,45,0.0,0.0,35,0.00,CLR,CLR,0.00,WeatherDisplay:10.37,2013-03-05 02:56:00,
2013-03-04 22:02:00,40.1,14.6,29.85,NE,45,0.0,0.0,35,0.00,CLR,CLR,0.00,WeatherDisplay:10.37,2013-03-05 03:02:00,
2013-03-04 22:07:00,39.7,14.3,29.85,NE,45,0.0,0.0,35,0.00,CLR,CLR,0.00,WeatherDisplay:10.37,2013-03-05 03:07:00,
2013-03-04 22:12:00,39.7,14.3,29.84,NE,45,0.0,0.0,35,0.00,CLR,CLR,0.00,WeatherDisplay:10.37,2013-03-05 03:12:00,
2013-03-04 22:17:00,40.1,13.9,29.84,NE,45,0.0,0.0,34,0.00,CLR,CLR,0.00,WeatherDisplay:10.37,2013-03-05 03:17:00,
2013-03-04 22:22:00,40.3,14.8,29.84,NE,45,0.0,0.0,35,0.00,CLR,CLR,0.00,WeatherDisplay:10.37,2013-03-05 03:22:00,
2013-03-04 22:27:00,40.3,14.8,29.84,NE,45,0.0,0.0,35,0.00,CLR,CLR,0.00,WeatherDisplay:10.37,2013-03-05 03:27:00,
2013-03-04 22:32:00,40.3,14.8,29.84,NE,45,0.0,0.0,35,0.00,CLR,CLR,0.00,WeatherDisplay:10.37,2013-03-05 03:32:00,
2013-03-04 22:38:00,40.1,14.6,29.84,NE,45,0.0,0.0,35,0.00,CLR,CLR,0.00,WeatherDisplay:10.37,2013-03-05 03:38:00,
2013-03-04 22:43:00,39.7,14.3,29.84,NE,45,0.0,0.0,35,0.00,CLR,CLR,0.00,WeatherDisplay:10.37,2013-03-05 03:43:00,
2013-03-04 22:48:00,39.0,15.5,29.84,NE,45,0.0,0.0,38,0.00,CLR,CLR,0.00,WeatherDisplay:10.37,2013-03-05 03:48:00,
2013-03-04 22:53:00,38.5,14.4,29.84,NE,45,0.0,0.0,37,0.00,CLR,CLR,0.00,WeatherDisplay:10.37,2013-03-05 03:53:00,
2013-03-04 22:58:00,38.1,14.7,29.84,NE,45,0.0,0.0,38,0.00,CLR,CLR,0.00,WeatherDisplay:10.37,2013-03-05 03:58:00,
2013-03-04 23:03:00,38.1,15.3,29.83,NE,45,0.0,0.0,39,0.00,CLR,CLR,0.00,WeatherDisplay:10.37,2013-03-05 04:03:00,
2013-03-04 23:08:00,37.6,15.4,29.83,ENE,68,1.5,1.5,40,0.00,CLR,CLR,0.00,WeatherDisplay:10.37,2013-03-05 04:08:00,
2013-03-04 23:14:00,37.0,15.5,29.83,ENE,68,0.0,0.0,41,0.00,CLR,CLR,0.00,WeatherDisplay:10.37,2013-03-05 04:14:00,
2013-03-04 23:19:00,37.0,15.5,29.84,ENE,68,0.0,0.0,41,0.00,CLR,CLR,0.00,WeatherDisplay:10.37,2013-03-05 04:19:00,
2013-03-04 23:24:00,36.7,15.2,29.85,ENE,68,0.0,0.0,41,0.00,CLR,CLR,0.00,WeatherDisplay:10.37,2013-03-05 04:24:00,
2013-03-04 23:29:00,36.5,15.0,29.85,ENE,68,0.0,0.0,41,0.00,CLR,CLR,0.00,WeatherDisplay:10.37,2013-03-05 04:29:00,
2013-03-04 23:34:00,36.0,15.1,29.85,ENE,68,0.0,0.0,42,0.00,CLR,CLR,0.00,WeatherDisplay:10.37,2013-03-05 04:34:00,
2013-03-04 23:39:00,35.6,14.7,29.84,ENE,68,0.0,0.0,42,0.00,CLR,CLR,0.00,WeatherDisplay:10.37,2013-03-05 04:39:00,
2013-03-04 23:44:00,35.6,15.3,29.84,ENE,68,0.0,0.0,43,0.00,CLR,CLR,0.00,WeatherDisplay:10.37,2013-03-05 04:44:00,
2013-03-04 23:49:00,35.4,15.1,29.84,ENE,68,0.0,0.0,43,0.00,CLR,CLR,0.00,WeatherDisplay:10.37,2013-03-05 04:49:00,
2013-03-04 23:54:00,35.4,14.6,29.84,ENE,68,0.0,0.0,42,0.00,CLR,CLR,0.00,WeatherDisplay:10.37,2013-03-05 04:54:00,